This demonstration page uses our WeatherBlox Daily Observations layout. Learn more.

Left ArrowRight Arrow

44.8408, -93.29828

Hourly Observations for September 11, 2019

Temp ( °F °C ) Dew Point ( °F °C ) Humidity (%) Winds ( mph kmh ) Pressure ( in mb ) Visibility ( mi km ) Precip ( " mm )
12:53 am 00:53 Mostly Cloudy 67 19.4 60 15.6 79 79 NE 8 13 30.03 1017 10 16 0.00 0.00
1:53 am 01:53 Cloudy 66 18.9 60 15.6 81 81 NE 8 13 30.04 1017 10 16 0.00 0.00
2:24 am 02:24 Cloudy 65 18.3 60 15.6 84 84 NE 12 19 30.01 1016 10 16 0.00 0.00
2:53 am 02:53 Cloudy 65 18.3 60 15.6 84 84 ENE 10 17 30.01 1016 10 16 0.00 0.00
2:59 am 02:59 Cloudy with Nearby Thunderstorms 65 18.3 59 15 81 81 NE 12 19 29.99 1016 10 16 0.00 0.00
3:22 am 03:22 Cloudy with Thunderstorms 65 18.3 60 15.6 84 84 NNE 10 17 29.99 1016 10 16 0.00 0.00
3:36 am 03:36 Cloudy with Nearby Thunderstorms 64 17.8 60 15.6 87 87 NE 18 30 29.95 1014 6 10 0.01 0.25
3:49 am 03:49 Cloudy with Thunderstorms 63 17 59 15 88 88 NE 14 22 29.95 1014 10 16 0.02 0.51
3:53 am 03:53 Cloudy with Thunderstorms 63 17.2 60 15.6 90 90 E 14 22 29.99 1016 10 16 0.02 0.51
4:53 am 04:53 Cloudy with Nearby Thunderstorms 62 16.7 60 15.6 93 93 NE 5 7 30.04 1017 3 5 0.71 18.03
5:01 am 05:01 Cloudy with Rain 61 16.1 60 15.6 97 97 N 8 13 30.03 1017 3 5 0.04 1.02
5:53 am 05:53 Cloudy with Rain 62 16.7 60 15.6 93 93 ENE 16 26 30.00 1016 4 6 0.27 6.86
6:43 am 06:43 Cloudy with Light Rain 62 16.7 60 15.6 93 93 E 14 22 29.97 1015 10 16 0.06 1.52
6:53 am 06:53 Cloudy with Light Rain 62 16.7 60 15.6 93 93 ENE 13 20 29.96 1015 10 16 0.07 1.78
6:57 am 06:57 Cloudy 62 16.7 60 15.6 93 93 ENE 15 24 29.97 1015 10 16 0.00 0.00
7:53 am 07:53 Cloudy 64 17.8 62 16.7 93 93 E 9 15 29.97 1015 10 16 0.00 0.00
8:14 am 08:14 Cloudy 65 18.3 62 16.7 90 90 E 9 15 29.97 1015 10 16 0.00 0.00
8:25 am 08:25 Cloudy 65 18.3 62 16.7 90 90 E 10 17 29.96 1015 10 16 0.00 0.00
8:53 am 08:53 Cloudy 65 18.3 62 16.7 90 90 E 9 15 29.98 1015 10 16 0.00 0.00
9:53 am 09:53 Cloudy with Rain 65 18.3 63 17.2 93 93 ENE 6 9 30.00 1016 9 14 0.02 0.51
10:12 am 10:12 Cloudy with Heavy Rain 65 18.3 63 17.2 93 93 NE 6 9 30.00 1016 2 3 0.04 1.02
10:20 am 10:20 Cloudy with Rain 65 18.3 63 17.2 93 93 VRB 5 7 30.01 1016 2 3 0.07 1.78
10:24 am 10:24 Cloudy with Rain 65 18.3 63 17.2 93 93 N 7 11 30.01 1016 2 2 0.09 2.29
10:32 am 10:32 Cloudy with Light Rain 65 18.3 63 17.2 93 93 NNE 8 13 30.01 1016 4 6 0.12 3.05
10:38 am 10:38 Cloudy with Light Rain 65 18.3 63 17.2 93 93 NNE 9 15 30.00 1016 3 4 0.13 3.30
10:53 am 10:53 Cloudy with Light Rain 64 17.8 62 16.7 93 93 NNE 10 17 30.01 1016 8 13 0.14 3.56
11:10 am 11:10 Cloudy with Drizzle 64 17.8 61 16.1 90 90 NE 10 17 30.02 1016 8 13 0.00 0.00
11:19 am 11:19 Cloudy with Drizzle 64 17.8 61 16.1 90 90 NE 10 17 30.02 1016 7 11 0.00 0.00
11:26 am 11:26 Cloudy with Light Rain 64 17.8 61 16.1 90 90 NE 12 19 30.02 1016 8 13 0.00 0.00
11:53 am 11:53 Cloudy with Drizzle 64 17.8 61 16.1 90 90 NE 12 19 30.02 1017 6 10 0.00 0.00
12:10 pm 12:10 Cloudy with Drizzle 63 17.2 61 16.1 93 93 NE 13 20 30.02 1016 7 11 0.00 0.00
12:43 pm 12:43 Cloudy with Light Rain 64 17.8 61 16.1 90 90 NE 14 22 30.02 1016 4 6 0.01 0.25
12:53 pm 12:53 Cloudy with Light Rain 64 17.8 62 16.7 93 93 NE 12 19 30.03 1017 6 10 0.01 0.25
1:53 pm 13:53 Cloudy 65 18.3 62 16.7 90 90 ENE 9 15 30.03 1017 8 13 0.00 0.00
2:03 pm 14:03 Cloudy 66 18.9 62 16.7 87 87 NE 10 17 30.02 1017 10 16 0.00 0.00
2:53 pm 14:53 Cloudy 66 18.9 62 16.7 87 87 NE 9 15 30.04 1017 10 16 0.00 0.00
3:53 pm 15:53 Cloudy 65 18.3 61 16.1 87 87 NNE 10 17 30.05 1018 10 16 0.00 0.00
4:53 pm 16:53 Cloudy with Drizzle 64 17.8 61 16.1 90 90 NNE 10 17 30.07 1018 10 16 0.00 0.00
5:18 pm 17:18 Cloudy with Drizzle 64 17.8 60 15.6 87 87 NNE 12 19 30.05 1018 10 16 0.00 0.00
5:53 pm 17:53 Cloudy with Drizzle 64 17.8 60 15.6 87 87 NE 13 20 30.07 1018 10 16 0.00 0.00
6:24 pm 18:24 Cloudy with Drizzle 64 17.8 59 15 84 84 NE 14 22 30.05 1018 10 16 0.00 0.00
6:53 pm 18:53 Cloudy 63 17.2 59 15 87 87 NE 10 17 30.07 1018 10 16 0.00 0.00
7:53 pm 19:53 Cloudy 63 17.2 59 15 87 87 NE 14 22 30.07 1018 10 16 0.00 0.00
8:15 pm 20:15 Cloudy with Drizzle 61 16.1 58 14.4 90 90 NE 15 24 30.07 1018 6 10 0.00 0.00
8:20 pm 20:20 Cloudy with Drizzle 61 16.1 58 14.4 90 90 NE 12 19 30.07 1018 6 10 0.00 0.00
8:53 pm 20:53 Cloudy with Drizzle 60 15.6 57 13.9 90 90 NE 12 19 30.10 1019 7 11 0.00 0.00
9:38 pm 21:38 Cloudy 60 15.6 56 13.3 86 86 ENE 14 22 30.07 1018 10 16 0.00 0.00
9:53 pm 21:53 Cloudy 60 15.6 56 13.3 86 86 NE 14 22 30.09 1019 10 16 0.00 0.00
10:53 pm 22:53 Cloudy 59 15 56 13.3 90 90 ENE 14 22 30.09 1019 10 16 0.00 0.00
11:53 pm 23:53 Cloudy 59 15 55 12.8 87 87 NE 13 20 30.10 1019 9 14 0.00 0.00

Powered by AerisWeather